Regional Weather Roundup
Issued by NWS

Home | Current Version | Previous Version | Graphics & Text | Print | Product List | Glossary On
Versions: 1 2 3 4 5 6 7 8 9 10 11 12 13 14 15 16 17 18 19 20 21 22 23 24 25 26 27 28 29 30 31 32 33 34 35 36 37 38 39 40 41 42 43 44 45 46 47 48 49 50
000
ASUS43 KTOP 112359
RWRKS

WEATHER ROUNDUP FOR KANSAS
NATIONAL WEATHER SERVICE GOODLAND KS
600 PM CST THU FEB 11 2016

NOTE:  "FAIR" INDICATES FEW OR NO CLOUDS BELOW 12,000 FEET WITH NO
SIGNIFICANT WEATHER AND/OR OBSTRUCTIONS TO VISIBILITY.

KSZ001>006-013>018-027>032-041>047-120100-
NORTHWEST KANSAS

CITY           SKY/WX    TMP DP  RH WIND       PRES   REMARKS
GOODLAND       CLEAR     48  31  51 N10       30.14R
6HR MIN TEMP:  48; 6HR MAX TEMP:  61;

HAYS           CLOUDY    46  28  49 S6        30.09S
HILL CITY      CLOUDY    44  35  70 NE7       30.11R
6HR MIN TEMP:  32; 6HR MAX TEMP:  53;

RUSSELL        CLEAR     40  32  73 E8        30.10R
6HR MIN TEMP:  34; 6HR MAX TEMP:  45;

$$

KSZ061>065-074>080-084>089-120100-
SOUTHWEST KANSAS

CITY           SKY/WX    TMP DP  RH WIND       PRES   REMARKS
DODGE CITY     CLEAR     54  30  40 S9        30.10R
6HR MIN TEMP:  42; 6HR MAX TEMP:  58;

ELKHART          N/A     65  23  20 S7          N/A
GARDEN CITY    CLOUDY    59  29  31 S6        30.07R
6HR MIN TEMP:  48; 6HR MAX TEMP:  65;

GREAT BEND     CLEAR     45  28  53 S6        30.11R
LIBERAL        CLOUDY    55  27  33 S9        30.10S
$$

KSZ066>073-081>083-090>101-120100-
SOUTHEAST KANSAS

CITY           SKY/WX    TMP DP  RH WIND       PRES   REMARKS
CHANUTE        PTCLDY    41  24  51 E5        30.19R
6HR MIN TEMP:  39; 6HR MAX TEMP:  46;

COFFEYVILLE    CLOUDY    45  26  47 N5        30.19R
6HR MIN TEMP:  42; 6HR MAX TEMP:  50;

HUTCHINSON     CLEAR     42  26  53 S7        30.13F
6HR MIN TEMP:  37; 6HR MAX TEMP:  47;

MEDICINE LODGE   N/A     49  30  48 S7        30.13R
NEWTON         CLEAR     41  21  45 S6        30.15S
PARSONS        PTCLDY    45  25  45 CALM      30.19R
6HR MIN TEMP:  41; 6HR MAX TEMP:  49;

WICHITA INTL   PTCLDY    44  26  49 CALM      30.14S
6HR MIN TEMP:  40; 6HR MAX TEMP:  49;

WICHITA JABRA  CLEAR     43  24  47 S7        30.14R
6HR MIN TEMP:  39; 6HR MAX TEMP:  49;

WINFIELD       CLEAR     48  25  40 E3        30.16S
6HR MIN TEMP:  43; 6HR MAX TEMP:  52;

$$

KSZ007>012-019>026-033>040-048>060-102>105-120100-
NORTHEAST KANSAS

CITY           SKY/WX    TMP DP  RH WIND       PRES   REMARKS
CONCORDIA      PTCLDY    32  25  75 SW3       30.15R
6HR MIN TEMP:  24; 6HR MAX TEMP:  33;

EMPORIA        PTCLDY    38  22  52 SE6       30.15F
6HR MIN TEMP:  34; 6HR MAX TEMP:  44;

LAWRENCE       PTCLDY    36  23  59 SE6       30.19F
6HR MIN TEMP:  33; 6HR MAX TEMP:  39;

MANHATTAN      PTCLDY    37  24  59 SW6       30.15R
6HR MIN TEMP:  29; 6HR MAX TEMP:  43;

OLATHE IND     CLOUDY    35  22  58 SE6       30.20R
6HR MIN TEMP:  33; 6HR MAX TEMP:  39;

OLATHE EXE     CLOUDY    34  21  59 SE6       30.20R
6HR MIN TEMP:  33; 6HR MAX TEMP:  38;

SALINA         CLEAR     41  27  57 SE3       30.15R
6HR MIN TEMP:  30; 6HR MAX TEMP:  44;

TOPEKA BILLARD CLEAR     38  22  52 SE7       30.17F
6HR MIN TEMP:  35; 6HR MAX TEMP:  40;

TOPEKA FORBES  CLEAR     38  23  55 SE6       30.16F
6HR MIN TEMP:  34; 6HR MAX TEMP:  42;

$$



USA.gov is the U.S. government's official web portal to all federal, state and local government web resources and services.